GW4489 Weather Reports


Display with metric or nautical units.
time (UTC)temp
F
wind
direction
speed
MPH
gust
MPH
rain 1hr
in
rain 24hr
in
rain mn
in
humidity
%
barometer
mb
20260509085507 55 191 3.0 7.0 0.00 0.00 0.00 77 1011.4
20260509085007 55 207 2.0 6.0 0.00 0.00 0.00 77 1011.5
20260509084524 54 210 3.0 6.0 0.00 0.00 0.00 78 1011.5
20260509084010 54 209 2.0 6.0 0.00 0.00 0.00 78 1011.4
20260509083509 54 175 1.0 6.0 0.00 0.00 0.00 78 1011.3
20260509083043 54 178 1.0 6.0 0.00 0.00 0.00 78 1011.2
20260509082510 54 148 1.0 3.0 0.00 0.00 0.00 78 1011.4
20260509082020 54 148 1.0 5.0 0.00 0.00 0.00 78 1011.2
20260509081530 54 148 1.0 4.0 0.00 0.00 0.00 78 1011.2
20260509081016 54 148 1.0 5.0 0.00 0.00 0.00 78 1011.1
20260509080502 54 148 2.0 6.0 0.00 0.00 0.00 78 1010.9
20260509080017 54 148 2.0 6.0 0.00 0.00 0.00 78 1010.9
20260509075506 54 148 2.0 5.0 0.00 0.00 0.00 78 1011.1
20260509075008 53 148 1.0 3.0 0.00 0.00 0.00 79 1011.2
20260509074530 53 148 1.0 5.0 0.00 0.00 0.00 79 1011.2
20260509074009 53 148 1.0 5.0 0.00 0.00 0.00 78 1011.0
20260509073509 53 148 1.0 5.0 0.00 0.00 0.00 78 1011.0
20260509073002 53 148 1.0 5.0 0.00 0.00 0.00 78 1011.2
20260509072502 53 148 2.0 4.0 0.00 0.00 0.00 77 1011.3
20260509072002 53 148 1.0 3.0 0.00 0.00 0.00 76 1011.3
20260509071508 53 148 0.0 5.0 0.00 0.00 0.00 76 1011.4
20260509071003 53 148 1.0 5.0 0.00 0.00 0.00 76 1011.4
20260509070503 53 148 0.0 2.0 0.00 0.00 0.00 76 1011.4
20260509070014 53 148 1.0 3.0 0.00 0.00 0.00 76 1011.2
20260509065504 53 148 0.0 3.0 0.00 0.00 0.00 75 1011.3
20260509065003 54 148 2.0 3.0 0.00 0.00 0.00 74 1011.3
20260509064520 54 148 0.0 2.0 0.00 0.00 0.00 74 1011.5
20260509064007 54 148 0.0 3.0 0.00 0.00 0.00 74 1011.6
20260509063506 54 148 1.0 3.0 0.00 0.00 0.00 74 1011.7
20260509063021 54 148 0.0 2.0 0.00 0.00 0.00 73 1011.7
20260509062510 54 148 0.0 3.0 0.00 0.00 0.00 73 1011.7
20260509062010 54 148 0.0 3.0 0.00 0.00 0.00 72 1011.7
20260509061528 55 148 0.0 5.0 0.00 0.00 0.00 72 1011.7
20260509061002 55 148 1.0 5.0 0.00 0.00 0.00 72 1011.8
20260509060502 55 148 1.0 6.0 0.00 0.00 0.00 71 1011.8
20260509060008 55 148 0.0 6.0 0.00 0.00 0.00 71 1012.0
20260509055503 55 149 1.0 3.0 0.00 0.00 0.00 70 1012.1
20260509055002 55 149 0.0 7.0 0.00 0.00 0.00 70 1012.2
20260509054512 55 149 2.0 7.0 0.00 0.00 0.00 70 1012.2
20260509054007 55 163 1.0 5.0 0.00 0.00 0.00 69 1012.3
20260509053504 55 163 2.0 5.0 0.00 0.00 0.00 69 1012.4
20260509053032 55 163 1.0 6.0 0.00 0.00 0.00 69 1012.3
20260509052510 55 163 3.0 6.0 0.00 0.00 0.00 69 1012.2
20260509052007 56 163 1.0 5.0 0.00 0.00 0.00 68 1012.2
20260509051529 56 163 2.0 6.0 0.00 0.00 0.00 68 1012.2
20260509051008 56 163 1.0 6.0 0.00 0.00 0.00 68 1012.2
20260509050506 56 163 3.0 6.0 0.00 0.00 0.00 68 1012.1
20260509050045 56 179 2.0 3.0 0.00 0.00 0.00 68 1012.2
20260509045509 56 179 1.0 5.0 0.00 0.00 0.00 68 1012.2
20260509045002 57 179 2.0 5.0 0.00 0.00 0.00 67 1012.1
20260509044512 57 179 3.0 5.0 0.00 0.00 0.00 67 1012.0
20260509044002 57 183 2.0 8.0 0.00 0.00 0.00 67 1012.1
20260509043502 57 191 3.0 8.0 0.00 0.00 0.00 67 1012.2
20260509043031 57 156 2.0 7.0 0.00 0.00 0.00 67 1012.3
20260509042504 57 157 2.0 5.0 0.00 0.00 0.00 67 1012.4
20260509042007 56 157 2.0 5.0 0.00 0.00 0.00 66 1012.5
20260509041520 56 157 1.0 7.0 0.00 0.00 0.00 66 1012.5
20260509041009 56 157 2.0 7.0 0.00 0.00 0.00 65 1012.5
20260509040507 56 157 2.0 7.0 0.00 0.00 0.00 65 1012.6
20260509040024 56 157 3.0 7.0 0.00 0.00 0.00 64 1012.6
20260509035508 56 143 2.0 4.0 0.00 0.00 0.00 64 1012.5
20260509035006 56 143 2.0 5.0 0.00 0.00 0.00 64 1012.7
20260509034526 56 143 3.0 5.0 0.00 0.00 0.00 64 1012.6
20260509034010 56 144 3.0 5.0 0.00 0.00 0.00 64 1012.5
20260509033514 56 130 3.0 5.0 0.00 0.00 0.00 64 1012.5
20260509033019 56 130 3.0 7.0 0.00 0.00 0.00 64 1012.6
20260509032503 56 130 3.0 7.0 0.00 0.00 0.00 64 1012.7
20260509032006 57 153 2.0 5.0 0.00 0.00 0.00 63 1012.7
20260509031519 56 153 2.0 6.0 0.00 0.00 0.00 64 1012.5
20260509031007 56 153 2.0 6.0 0.00 0.00 0.00 64 1012.6
20260509030510 57 144 2.0 4.0 0.00 0.00 0.00 64 1012.6
20260509030025 57 144 2.0 4.0 0.00 0.00 0.00 64 1012.6
20260509025507 57 144 2.0 4.0 0.00 0.00 0.00 64 1012.7
20260509025006 57 144 3.0 4.0 0.00 0.00 0.00 64 1012.7
20260509024528 57 144 3.0 4.0 0.00 0.00 0.00 63 1012.7
20260509024011 57 132 2.0 4.0 0.00 0.00 0.00 62 1012.7
20260509023508 57 132 2.0 4.0 0.00 0.00 0.00 62 1012.7
20260509023027 57 132 2.0 4.0 0.00 0.00 0.00 62 1012.7
20260509022511 57 132 2.0 3.0 0.00 0.00 0.00 63 1012.7
20260509022009 57 132 2.0 3.0 0.00 0.00 0.00 63 1012.7
20260509021530 57 132 2.0 4.0 0.00 0.00 0.00 64 1012.7
20260509021007 56 132 2.0 4.0 0.00 0.00 0.00 64 1012.6
20260509020507 56 132 2.0 4.0 0.00 0.00 0.00 64 1012.5
20260509020021 56 132 2.0 4.0 0.00 0.00 0.00 64 1012.6
20260509015508 56 132 2.0 4.0 0.00 0.00 0.00 65 1012.5
20260509015011 56 134 2.0 4.0 0.00 0.00 0.00 65 1012.4
20260509014526 56 129 2.0 4.0 0.00 0.00 0.00 65 1012.3
20260509014009 57 129 1.0 4.0 0.00 0.00 0.00 64 1012.4
20260509013506 57 129 2.0 4.0 0.00 0.00 0.00 64 1012.4
20260509013028 57 129 2.0 4.0 0.00 0.00 0.00 63 1012.3
20260509012511 57 119 2.0 4.0 0.00 0.00 0.00 63 1012.3
20260509012007 58 119 3.0 4.0 0.00 0.00 0.00 62 1012.3
20260509011530 58 106 2.0 3.0 0.00 0.00 0.00 60 1012.4
20260509011010 59 89 1.0 3.0 0.00 0.00 0.00 60 1012.4
20260509010508 59 89 0.0 2.0 0.00 0.00 0.00 59 1012.4
20260509010034 59 89 1.0 3.0 0.00 0.00 0.00 61 1012.4
20260509005505 59 89 1.0 3.0 0.00 0.00 0.00 61 1012.4
20260509005009 60 84 0.0 1.0 0.00 0.00 0.00 55 1012.5
20260509004521 61 84 0.0 1.0 0.00 0.00 0.00 57 1012.4
20260509004007 62 284 0.0 2.0 0.00 0.00 0.00 56 1012.3
20260509003506 63 284 0.0 2.0 0.00 0.00 0.00 55 1012.2
20260509003025 64 236 0.0 2.0 0.00 0.00 0.00 49 1012.2
20260509002510 64 236 0.0 1.0 0.00 0.00 0.00 48 1012.3
20260509002010 65 236 0.0 1.0 0.00 0.00 0.00 46 1012.4
20260509001528 66 227 0.0 0.0 0.00 0.00 0.00 45 1012.5
20260509001009 67 227 0.0 0.0 0.00 0.00 0.00 44 1012.5
20260509000511 67 227 0.0 0.0 0.00 0.00 0.00 42 1012.5
20260509000040 68 227 0.0 3.0 0.00 0.00 0.00 42 1012.4
20260508235510 68 227 0.0 5.0 0.00 0.00 0.00 40 1012.4
20260508235010 69 227 2.0 6.0 0.00 0.00 0.00 41 1012.4
20260508234528 70 207 0.0 6.0 0.00 0.00 0.00 40 1012.4
20260508234009 70 201 2.0 5.0 0.00 0.00 0.00 39 1012.4
20260508233508 71 207 1.0 6.0 0.00 0.00 0.00 41 1012.5
20260508233022 71 207 2.0 6.0 0.00 0.00 0.00 37 1012.5
20260508232508 71 202 2.0 7.0 0.00 0.00 0.00 37 1012.5
20260508232010 71 205 2.0 7.0 0.00 0.00 0.00 36 1012.5
20260508231526 72 222 2.0 5.0 0.00 0.00 0.00 36 1012.4
20260508231012 72 222 1.0 4.0 0.00 0.00 0.00 37 1012.4
20260508230504 72 222 1.0 5.0 0.00 0.00 0.00 40 1012.5
20260508230013 72 222 1.0 5.0 0.00 0.00 0.00 35 1012.4
20260508225503 72 222 3.0 5.0 0.00 0.00 0.00 35 1012.4
20260508225006 72 248 1.0 5.0 0.00 0.00 0.00 36 1012.5
20260508224538 72 251 4.0 5.0 0.00 0.00 0.00 35 1012.5
20260508224006 72 215 3.0 7.0 0.00 0.00 0.00 34 1012.6
20260508223506 72 215 2.0 7.0 0.00 0.00 0.00 41 1012.6
20260508223002 72 84 2.0 7.0 0.00 0.00 0.00 33 1012.7
20260508222502 73 225 3.0 7.0 0.00 0.00 0.00 34 1012.8
20260508222002 73 182 1.0 8.0 0.00 0.00 0.00 40 1012.9
20260508221505 73 156 4.0 8.0 0.00 0.00 0.00 35 1013.1
20260508221002 72 210 3.0 9.0 0.00 0.00 0.00 37 1013.1
20260508220503 73 205 4.0 9.0 0.00 0.00 0.00 36 1013.2
20260508220006 73 212 1.0 6.0 0.00 0.00 0.00 39 1013.2
20260508215503 74 222 2.0 7.0 0.00 0.00 0.00 37 1013.2
20260508215003 73 209 3.0 7.0 0.00 0.00 0.00 36 1013.1
20260508214517 73 165 2.0 8.0 0.00 0.00 0.00 35 1013.0
20260508214005 73 213 3.0 8.0 0.00 0.00 0.00 34 1013.0
20260508213502 73 113 3.0 9.0 0.00 0.00 0.00 36 1012.9
20260508213028 73 192 2.0 9.0 0.00 0.00 0.00 33 1012.9
20260508212506 73 203 4.0 9.0 0.00 0.00 0.00 33 1012.9
20260508212008 73 256 2.0 12.0 0.00 0.00 0.00 32 1012.9
20260508211525 72 209 4.0 12.0 0.00 0.00 0.00 33 1012.9
20260508211002 74 246 2.0 10.0 0.00 0.00 0.00 37 1012.9
20260508210503 73 194 4.0 10.0 0.00 0.00 0.00 34 1012.9
20260508210008 73 204 6.0 10.0 0.00 0.00 0.00 34 1013.0
20260508205502 72 126 4.0 9.0 0.00 0.00 0.00 33 1012.9
20260508205004 72 146 6.0 9.0 0.00 0.00 0.00 34 1012.9
20260508204510 72 218 5.0 9.0 0.00 0.00 0.00 34 1012.9
20260508204005 73 242 2.0 10.0 0.00 0.00 0.00 39 1013.0
20260508203505 72 216 5.0 12.0 0.00 0.00 0.00 34 1013.2
20260508203018 73 154 5.0 12.0 0.00 0.00 0.00 38 1013.3
20260508202507 73 227 2.0 8.0 0.00 0.00 0.00 36 1013.2
20260508202007 72 200 4.0 8.0 0.00 0.00 0.00 36 1013.3
20260508201524 72 254 3.0 9.0 0.00 0.00 0.00 28 1013.3
20260508201007 72 222 5.0 9.0 0.00 0.00 0.00 33 1013.5
20260508200506 73 204 2.0 9.0 0.00 0.00 0.00 36 1013.6
20260508200038 72 250 6.0 12.0 0.00 0.00 0.00 31 1013.5
20260508195506 72 206 3.0 12.0 0.00 0.00 0.00 41 1013.5
20260508195002 72 194 3.0 8.0 0.00 0.00 0.00 34 1013.5
20260508194513 72 225 1.0 8.0 0.00 0.00 0.00 31 1013.6
20260508194011 71 268 4.0 8.0 0.00 0.00 0.00 38 1013.6
20260508193503 71 239 4.0 8.0 0.00 0.00 0.00 35 1013.7
20260508193012 71 229 4.0 8.0 0.00 0.00 0.00 34 1013.8
20260508192505 71 219 0.0 8.0 0.00 0.00 0.00 39 1013.9
20260508192007 71 210 4.0 8.0 0.00 0.00 0.00 39 1014.1
20260508191520 71 217 4.0 7.0 0.00 0.00 0.00 39 1014.3
20260508191010 71 146 1.0 7.0 0.00 0.00 0.00 38 1014.5
20260508190508 71 202 3.0 9.0 0.00 0.00 0.00 43 1014.7
20260508190021 70 239 4.0 9.0 0.00 0.00 0.00 42 1014.8
20260508185509 70 154 2.0 5.0 0.00 0.00 0.00 42 1014.9
20260508185010 70 141 2.0 6.0 0.00 0.00 0.00 38 1014.9
20260508184529 70 40 3.0 9.0 0.00 0.00 0.00 40 1014.9
20260508184009 70 128 3.0 9.0 0.00 0.00 0.00 44 1015.1
20260508183502 70 157 4.0 8.0 0.00 0.00 0.00 40 1015.2
20260508183010 70 136 3.0 10.0 0.00 0.00 0.00 44 1015.3
20260508182504 71 117 6.0 10.0 0.00 0.00 0.00 42 1015.4
20260508182008 70 150 4.0 10.0 0.00 0.00 0.00 48 1015.6
20260508181521 69 279 4.0 10.0 0.00 0.00 0.00 44 1015.7
20260508181007 69 235 5.0 10.0 0.00 0.00 0.00 37 1015.8
20260508180507 69 194 6.0 10.0 0.00 0.00 0.00 42 1015.9
20260508180020 69 223 0.0 9.0 0.00 0.00 0.00 35 1015.8
20260508175507 69 234 4.0 9.0 0.00 0.00 0.00 40 1015.8
20260508175010 69 215 1.0 6.0 0.00 0.00 0.00 40 1015.7
20260508174526 69 165 2.0 8.0 0.00 0.00 0.00 42 1015.7
20260508174013 68 171 3.0 8.0 0.00 0.00 0.00 33 1015.9
20260508173510 68 205 3.0 8.0 0.00 0.00 0.00 37 1015.9
20260508173028 67 221 1.0 8.0 0.00 0.00 0.00 37 1016.1
20260508172510 69 211 1.0 8.0 0.00 0.00 0.00 41 1016.2
20260508172006 69 138 4.0 8.0 0.00 0.00 0.00 38 1016.2
20260508171528 68 188 2.0 9.0 0.00 0.00 0.00 44 1016.2
20260508171005 67 261 2.0 9.0 0.00 0.00 0.00 40 1016.4
20260508170504 67 208 4.0 9.0 0.00 0.00 0.00 48 1016.4
20260508170018 67 244 3.0 11.0 0.00 0.00 0.00 49 1016.6
20260508165507 66 201 6.0 11.0 0.00 0.00 0.00 44 1016.7
20260508165007 68 225 4.0 9.0 0.00 0.00 0.00 41 1016.8
20260508164523 67 229 3.0 9.0 0.00 0.00 0.00 45 1017.0
20260508164006 67 140 4.0 10.0 0.00 0.00 0.00 48 1017.2
20260508163512 67 156 3.0 10.0 0.00 0.00 0.00 42 1017.3
20260508163027 65 158 5.0 10.0 0.00 0.00 0.00 43 1017.4
20260508162507 65 245 3.0 9.0 0.00 0.00 0.00 39 1017.4
20260508162013 66 179 1.0 9.0 0.00 0.00 0.00 41 1017.5
20260508161535 66 155 0.0 6.0 0.00 0.00 0.00 46 1017.5
20260508161010 66 160 3.0 6.0 0.00 0.00 0.00 40 1017.6
20260508160510 65 161 1.0 5.0 0.00 0.00 0.00 42 1017.6
20260508160019 65 255 3.0 5.0 0.00 0.00 0.00 43 1017.7
20260508155505 66 206 2.0 7.0 0.00 0.00 0.00 45 1017.8
20260508155007 65 123 2.0 7.0 0.00 0.00 0.00 43 1017.9
20260508154518 65 117 3.0 9.0 0.00 0.00 0.00 44 1017.9
20260508154009 64 136 5.0 9.0 0.00 0.00 0.00 47 1018.0
20260508153507 64 53 3.0 7.0 0.00 0.00 0.00 44 1018.1
20260508153026 64 49 2.0 7.0 0.00 0.00 0.00 43 1018.1
20260508152508 64 111 3.0 8.0 0.00 0.00 0.00 44 1018.3
20260508152010 64 134 4.0 8.0 0.00 0.00 0.00 48 1018.3
20260508151525 63 301 1.0 4.0 0.00 0.00 0.00 46 1018.3
20260508151012 63 221 1.0 6.0 0.00 0.00 0.00 50 1018.4
20260508150513 62 223 1.0 7.0 0.00 0.00 0.00 47 1018.4
20260508150037 62 232 3.0 7.0 0.00 0.00 0.00 48 1018.4
20260508145507 62 222 3.0 6.0 0.00 0.00 0.00 50 1018.4
20260508145010 62 227 1.0 5.0 0.00 0.00 0.00 51 1018.3
20260508144540 62 227 2.0 5.0 0.00 0.00 0.00 53 1018.3
20260508144007 62 199 3.0 5.0 0.00 0.00 0.00 49 1018.3
20260508143506 62 197 2.0 4.0 0.00 0.00 0.00 51 1018.4
20260508143028 61 221 0.0 5.0 0.00 0.00 0.00 54 1018.4
20260508142506 61 221 1.0 5.0 0.00 0.00 0.00 55 1018.4
20260508142007 60 221 1.0 4.0 0.00 0.00 0.00 55 1018.5
20260508141528 60 221 2.0 4.0 0.00 0.00 0.00 59 1018.5
20260508141012 59 221 2.0 5.0 0.00 0.00 0.00 60 1018.5
20260508140503 58 221 3.0 5.0 0.00 0.00 0.00 61 1018.4
20260508140012 57 221 1.0 4.0 0.00 0.00 0.00 66 1018.4
20260508135503 57 221 2.0 4.0 0.00 0.00 0.00 67 1018.4
20260508135006 56 284 0.0 2.0 0.00 0.00 0.00 72 1018.5
20260508134515 55 284 0.0 3.0 0.00 0.00 0.00 81 1018.5
20260508134007 53 284 1.0 3.0 0.00 0.00 0.00 83 1018.6
20260508133502 53 284 0.0 1.0 0.00 0.00 0.00 91 1018.6
20260508133003 51 284 0.0 3.0 0.00 0.00 0.00 92 1018.6
20260508132502 51 284 0.0 3.0 0.00 0.00 0.00 94 1018.7
20260508132002 50 284 0.0 0.0 0.00 0.00 0.00 96 1018.6
20260508131507 49 284 0.0 3.0 0.00 0.00 0.00 96 1018.5
20260508131005 48 284 0.0 3.0 0.00 0.00 0.00 96 1018.5
20260508130502 48 284 1.0 3.0 0.00 0.00 0.00 96 1018.5
20260508130010 47 284 0.0 2.0 0.00 0.00 0.00 95 1018.4
20260508125503 47 284 1.0 2.0 0.00 0.00 0.00 96 1018.4
20260508125003 46 284 1.0 2.0 0.00 0.00 0.00 96 1018.3
20260508124512 46 284 1.0 2.0 0.00 0.00 0.00 96 1018.4
20260508124007 45 284 0.0 1.0 0.00 0.00 0.00 96 1018.4
20260508123506 44 209 0.0 0.0 0.00 0.00 0.00 96 1018.4
20260508123021 44 209 0.0 1.0 0.00 0.00 0.00 96 1018.4
20260508122506 43 209 0.0 1.0 0.00 0.00 0.00 96 1018.3
20260508122005 42 209 0.0 1.0 0.00 0.00 0.00 96 1018.3
20260508121504 40 286 0.0 1.0 0.00 0.00 0.00 96 1018.3
20260508121004 39 286 0.0 0.0 0.00 0.00 0.00 95 1018.2
20260508120502 38 286 0.0 0.0 0.00 0.00 0.00 95 1018.1
20260508120009 38 286 0.0 1.0 0.00 0.01 0.00 94 1018.1
20260508115503 38 286 0.0 1.0 0.00 0.01 0.00 95 1018.1
20260508115003 37 286 0.0 1.0 0.00 0.01 0.00 94 1018.0
20260508114524 37 54 0.0 1.0 0.00 0.01 0.00 93 1018.0
20260508114003 37 54 0.0 1.0 0.00 0.01 0.00 93 1017.9
20260508113507 37 331 0.0 0.0 0.00 0.01 0.00 93 1017.9
20260508113014 37 331 0.0 0.0 0.00 0.01 0.00 93 1017.7
20260508112507 36 331 0.0 0.0 0.00 0.01 0.00 92 1017.7
20260508112011 36 332 0.0 1.0 0.00 0.01 0.00 92 1017.7
20260508111518 36 332 0.0 1.0 0.00 0.01 0.00 92 1017.6
20260508111007 36 332 0.0 0.0 0.00 0.01 0.00 92 1017.4
20260508110508 36 332 0.0 0.0 0.00 0.01 0.00 92 1017.4
20260508110021 37 332 0.0 0.0 0.00 0.01 0.00 92 1017.4
20260508105502 37 332 0.0 0.0 0.00 0.01 0.00 92 1017.3
20260508105004 37 332 0.0 0.0 0.00 0.01 0.00 92 1017.3
20260508104507 36 332 0.0 0.0 0.00 0.01 0.00 92 1017.3
20260508104003 37 332 0.0 0.0 0.00 0.01 0.00 92 1017.3
20260508103502 37 332 0.0 1.0 0.00 0.01 0.00 92 1017.2
20260508103016 37 332 0.0 1.0 0.00 0.01 0.00 92 1017.1
20260508102503 37 332 0.0 1.0 0.00 0.01 0.00 92 1017.1
20260508102004 37 332 0.0 0.0 0.00 0.01 0.00 92 1017.1
20260508101517 37 332 0.0 0.0 0.00 0.01 0.00 92 1016.8
20260508101006 37 332 0.0 0.0 0.00 0.01 0.00 91 1016.8
20260508100503 37 332 0.0 0.0 0.00 0.01 0.00 91 1016.9
20260508100029 37 332 0.0 0.0 0.00 0.01 0.00 91 1016.8
20260508095511 38 332 0.0 0.0 0.00 0.01 0.00 92 1016.8
20260508095008 38 332 0.0 0.0 0.00 0.01 0.00 91 1016.9
20260508094525 37 332 0.0 1.0 0.00 0.01 0.00 91 1016.9
20260508094009 37 332 0.0 1.0 0.00 0.01 0.00 91 1016.8
20260508093504 38 332 0.0 2.0 0.00 0.01 0.00 91 1016.8
20260508093014 38 332 0.0 2.0 0.00 0.01 0.00 91 1016.8
20260508092504 38 332 0.0 0.0 0.00 0.01 0.00 91 1016.7
20260508092003 38 332 0.0 0.0 0.00 0.01 0.00 92 1016.7
20260508091512 38 332 0.0 0.0 0.00 0.01 0.00 91 1016.8
20260508091008 38 332 0.0 0.0 0.00 0.01 0.00 91 1016.8
20260508090507 38 332 0.0 0.0 0.00 0.01 0.00 91 1016.7
20260508090019 38 332 0.0 0.0 0.00 0.01 0.00 91 1016.7